Temp
86 96 95 90 85 89 87 88 85 87 82 90 89 86 89 89 87 88 89 82 81 81 81 80 80 82 81 81 80 81 81 81 81 81 81 81 82 81 82 82 81 81 81
91 84 89 85 86 85 85 85 85 88 86 91 89 92 91 86 87 84 88 82 81 81 82 81 80 81 81 81 82 82 82 81 81 81 80 80 80 81 81 81 82 80 81
93 87 86 86 86 86 94 87 91 92 91 92 93 93 93 87 90 92 91 91 82 82 82 82 81 81 80 81 82 82 81 80 78 79 79 80 80 80 80 81 81 81 81
91 89 82 84 86 89 85 85 83 80 92 93 86 85 94 91 94 92 91 93 91 85 82 82 81 81 81 80 82 82 80 79 78 78 78 78 80 80 80 80 80 80 81
93 91 85 83 91 85 84 85 88 94 89 86 86 85 87 90 95 96 93 90 93 92 91 82 80 80 82 81 82 81 80 78 77 77 78 78 78 79 79 79 80 79 80
94 93 93 90 93 93 88 87 88 93 90 81 93 96 96 99 98 89 93 97 94 91 93 90 83 81 80 81 81 81 80 78 75 77 78 77 78 78 78 78 79 79 79
94 93 94 86 93 90 91 90 87 82 90 91 90 92 73 74 85 80 75 89 93 94 93 95 90 83 81 80 80 80 80 79 76 75 76 78 77 78 77 78 78 78 79
94 93 92 82 89 90 91 90 89 90 90 93 88 90 86 80 83 93 94 95 95 98 98 98 95 86 86 83 84 80 79 78 77 75 75 75 77 77 77 77 77 78 78
94 93 93 92 92 92 85 90 90 89 89 92 89 87 84 82 86 90 91 92 95 96 98 96 94 91 88 86 82 84 79 77 78 77 76 75 75 77 78 78 77 77 78
95 95 93 92 91 92 89 93 93 90 89 85 86 90 88 84 81 82 92 94 95 95 96 95 96 91 88 87 84 82 79 77 77 78 77 77 75 76 78 78 78 77 78
95 96 94 92 91 93 93 91 91 90 91 87 89 90 87 87 84 83 82 88 93 96 97 96 94 93 88 87 87 84 79 77 77 77 78 77 77 76 78 78 79 78 78
97 94 95 93 92 93 93 93 91 90 89 89 91 87 88 83 86 86 86 86 88 91 95 89 95 94 93 90 86 80 78 77 76 76 77 77 78 77 77 78 78 80 80
98 95 93 93 94 91 92 92 91 90 89 86 88 91 93 89 91 86 89 87 87 93 92 94 93 94 94 92 90 81 78 76 75 75 75 75 76 77 77 77 77 78 80
99 98 94 94 93 94 93 92 93 93 86 91 89 89 90 91 93 93 90 86 85 88 92 88 97 89 86 92 88 78 85 74 74 73 73 74 75 75 76 76 75 75 76
99 98 96 94 94 93 93 92 93 93 93 91 91 87 87 93 96 93 93 91 87 81 84 90 92 95 94 87 83 88 86 80 74 73 72 72 73 74 75 75 75 74 74
95 95 94 93 93 93 92 90 93 93 89 91 91 85 88 94 94 95 93 93 89 85 81 90 91 93 89 92 91 90 89 81 75 73 72 72 72 73 73 73 74 74 73
95 92 91 92 91 91 92 89 89 90 89 88 88 86 84 89 91 94 94 93 91 88 84 87 89 89 84 86 88 88 89 87 84 74 73 72 71 71 72 72 72 72 73
95 93 91 90 90 91 91 90 89 91 89 86 86 86 86 91 88 88 91 88 88 86 84 79 84 85 85 85 86 85 88 93 93 82 74 72 71 70 70 69 70 70 70
93 96 92 89 89 90 90 91 89 89 88 88 87 85 86 87 85 86 85 85 89 87 86 84 83 89 89 88 85 84 85 87 91 84 73 72 71 70 69 68 67 66 65
93 93 95 91 91 91 91 91 91 89 89 89 88 87 88 87 85 84 84 83 82 83 84 85 86 87 88 88 87 85 84 87 86 91 86 78 74 71 69 67 67 66 64
94 93 92 93 92 93 94 91 91 90 89 87 87 87 87 85 78 77 83 83 82 82 84 83 83 84 84 82 80 84 83 84 84 88 89 90 80 72 75 68 73 69 66
93 91 91 91 91 94 74 80 81 92 90 85 86 86 87 79 77 74 73 72 73 75 77 79 80 79 77 79 81 80 78 77 75 86 82 84 87 87 80 75 74 71 67
91 90 90 91 89 88 72 73 76 91 91 89 87 87 89 94 82 82 73 70 71 70 71 77 75 76 76 79 78 76 75 75 74 80 79 78 85 85 89 90 73 69 68
89 88 89 89 87 85 69 70 74 86 90 90 89 88 86 86 77 78 84 83 84 85 82 80 80 81 81 80 76 75 73 73 76 80 80 78 85 85 89 91 72 69 66
88 89 88 86 84 75 66 68 75 84 87 87 88 87 86 84 63 64 77 78 78 81 81 73 71 69 69 68 71 77 75 75 74 78 83 81 83 83 86 87 90 67 65
88 89 86 85 74 71 62 66 74 88 87 88 86 84 64 75 61 61 73 74 73 76 77 76 77 77 74 78 68 72 74 73 75 72 80 78 80 81 78 86 88 88 77
MSLP
1014.51 1013.98 1014.21 1014.63 1015.11 1015.00 1015.00 1014.96 1015.18 1015.09 1015.49 1015.24 1015.17 1014.97 1014.99 1014.70 1014.70 1014.59 1014.66 1015.29 1015.66 1016.01 1016.38 1016.71 1017.02 1017.04 1017.37 1017.68 1017.99 1017.96 1018.08 1018.28 1018.58 1018.89 1019.11 1019.67 1019.90 1020.12 1020.40 1020.56 1020.76 1020.72 1020.79
1014.40 1014.94 1014.74 1014.98 1015.03 1015.03 1015.03 1014.96 1014.98 1015.16 1015.18 1014.76 1014.54 1014.25 1013.89 1013.96 1014.04 1014.18 1014.26 1014.74 1015.29 1015.47 1015.70 1016.15 1016.57 1016.75 1016.92 1017.14 1017.31 1017.39 1017.52 1017.81 1018.08 1018.44 1018.83 1019.42 1019.75 1020.03 1020.18 1020.36 1020.60 1020.81 1020.76
1014.23 1014.72 1014.60 1014.80 1014.74 1014.64 1014.54 1014.77 1014.65 1014.61 1014.57 1014.39 1013.66 1013.61 1013.23 1013.26 1012.99 1013.15 1013.60 1013.55 1014.55 1015.01 1015.04 1015.34 1015.71 1016.01 1016.48 1016.60 1016.66 1016.95 1017.31 1017.56 1017.98 1018.44 1018.69 1019.19 1019.47 1019.86 1020.02 1020.11 1020.37 1020.59 1020.92
1014.38 1014.86 1014.96 1014.84 1014.55 1014.36 1014.63 1014.52 1014.43 1014.63 1014.01 1013.53 1013.18 1013.25 1012.71 1012.40 1012.26 1012.60 1012.84 1012.79 1013.12 1013.87 1014.44 1014.73 1015.10 1015.34 1015.59 1016.00 1016.19 1016.63 1017.16 1017.73 1017.99 1018.24 1018.75 1018.86 1019.17 1019.56 1019.81 1019.99 1020.16 1020.32 1020.55
1014.29 1014.48 1014.48 1014.70 1014.17 1014.51 1014.57 1014.36 1014.10 1013.63 1013.69 1013.24 1012.86 1012.36 1012.07 1011.67 1011.83 1011.28 1011.81 1011.77 1011.84 1012.55 1012.86 1013.83 1014.32 1014.63 1014.94 1015.25 1015.54 1016.09 1016.70 1017.36 1017.86 1018.10 1018.41 1018.79 1018.95 1019.14 1019.53 1019.73 1019.94 1020.15 1020.36
1013.77 1014.06 1013.74 1014.07 1014.14 1014.31 1014.36 1014.29 1014.35 1013.90 1013.60 1013.54 1012.23 1011.46 1011.44 1011.02 1010.88 1011.65 1012.49 1011.41 1010.98 1011.60 1012.15 1012.38 1013.26 1013.87 1014.24 1014.46 1014.86 1015.45 1016.22 1016.69 1017.45 1017.81 1017.99 1018.48 1018.81 1018.95 1019.26 1019.40 1019.62 1019.93 1020.14
1013.20 1013.51 1013.67 1014.15 1013.91 1014.05 1014.02 1014.35 1014.17 1014.06 1013.04 1012.71 1012.10 1011.84 1012.06 1012.82 1012.25 1012.07 1012.40 1012.15 1010.49 1010.67 1011.03 1011.19 1011.75 1012.50 1012.94 1013.57 1014.02 1014.71 1015.47 1016.02 1016.70 1017.43 1017.80 1018.06 1018.45 1018.62 1018.79 1018.96 1019.26 1019.56 1019.78
1013.29 1013.42 1013.60 1013.84 1013.72 1013.47 1013.68 1014.01 1013.95 1013.36 1012.74 1012.75 1012.48 1011.80 1011.90 1012.60 1011.99 1011.74 1011.41 1010.60 1010.52 1010.52 1010.39 1010.45 1010.98 1011.91 1012.27 1012.93 1013.22 1013.99 1014.74 1015.41 1016.07 1016.69 1017.29 1017.59 1017.95 1018.23 1018.36 1018.59 1018.85 1019.14 1019.46
1012.88 1013.08 1013.20 1013.46 1013.37 1013.56 1013.15 1013.57 1013.53 1013.34 1012.76 1012.66 1012.88 1012.60 1012.18 1012.21 1012.05 1011.62 1010.95 1010.52 1010.57 1010.62 1010.36 1010.78 1010.81 1011.37 1011.91 1012.40 1012.96 1013.19 1013.94 1014.72 1015.34 1015.86 1016.48 1017.09 1017.34 1017.64 1017.92 1018.17 1018.48 1018.69 1018.95
1012.31 1012.48 1012.82 1013.05 1013.25 1012.92 1012.92 1012.89 1013.09 1013.14 1013.11 1013.02 1012.81 1012.70 1012.88 1012.98 1012.39 1011.46 1010.80 1010.57 1010.69 1010.37 1010.38 1010.89 1010.70 1011.28 1011.99 1012.22 1012.49 1012.93 1013.48 1014.12 1014.67 1015.27 1015.76 1016.32 1016.71 1017.07 1017.33 1017.65 1017.97 1018.21 1018.36
1011.95 1011.96 1012.30 1012.65 1012.96 1013.06 1012.76 1013.12 1013.14 1013.08 1012.95 1013.03 1012.77 1012.45 1012.63 1012.59 1012.79 1012.22 1011.21 1010.82 1010.62 1010.35 1010.35 1010.70 1011.07 1010.92 1011.73 1012.10 1012.23 1012.50 1013.12 1013.57 1014.05 1014.54 1014.95 1015.61 1016.19 1016.56 1016.80 1017.16 1017.29 1017.56 1017.87
1011.33 1011.85 1011.79 1012.33 1012.57 1012.68 1012.75 1012.95 1013.10 1013.20 1013.34 1013.08 1012.69 1012.72 1012.26 1012.63 1012.14 1011.88 1011.14 1011.14 1010.65 1010.57 1010.30 1010.45 1010.63 1010.87 1011.24 1011.78 1012.22 1012.56 1012.93 1013.27 1013.66 1014.02 1014.39 1014.83 1015.19 1015.63 1016.03 1016.25 1016.57 1016.79 1017.12
1010.45 1010.77 1011.75 1012.15 1012.36 1012.63 1012.85 1013.00 1013.13 1013.09 1013.00 1013.20 1012.96 1012.34 1012.00 1012.03 1012.00 1012.02 1011.18 1011.04 1010.66 1010.09 1009.88 1010.15 1010.33 1010.55 1010.77 1011.22 1011.53 1012.17 1012.62 1012.95 1013.26 1013.60 1013.92 1014.23 1014.53 1014.81 1015.13 1015.47 1015.77 1016.13 1016.24
1009.97 1010.37 1011.18 1011.72 1012.11 1012.28 1012.53 1012.79 1012.90 1012.53 1012.40 1012.32 1012.39 1012.25 1012.04 1011.82 1011.45 1011.33 1011.33 1011.50 1010.86 1010.22 1009.84 1010.23 1009.76 1010.25 1010.46 1010.61 1010.78 1011.43 1011.70 1012.36 1012.74 1013.00 1013.27 1013.50 1013.72 1013.94 1014.14 1014.48 1014.87 1015.08 1015.65
1009.81 1010.20 1010.84 1011.36 1011.74 1012.04 1012.42 1012.44 1012.43 1012.13 1012.24 1012.51 1012.33 1012.45 1012.36 1011.78 1011.03 1011.38 1011.27 1011.28 1011.08 1010.81 1010.31 1009.87 1009.67 1009.73 1009.86 1010.24 1010.49 1010.87 1010.73 1010.93 1011.43 1011.88 1012.21 1012.59 1012.92 1013.08 1013.25 1013.45 1013.68 1013.98 1014.39
1010.00 1010.19 1010.74 1011.33 1011.71 1011.90 1011.97 1012.20 1011.95 1011.81 1012.28 1012.26 1012.14 1012.29 1012.27 1011.55 1011.37 1011.00 1011.17 1010.91 1011.13 1011.18 1010.62 1010.19 1009.84 1009.86 1010.33 1009.95 1010.02 1010.15 1010.09 1010.17 1010.54 1010.81 1010.95 1011.18 1011.51 1011.91 1012.20 1012.47 1012.76 1012.87 1013.14
1009.60 1010.17 1010.71 1011.05 1011.37 1011.53 1011.64 1012.00 1012.08 1012.08 1012.18 1012.25 1012.25 1012.37 1012.42 1012.19 1011.91 1011.38 1011.09 1011.02 1010.92 1011.17 1010.77 1010.34 1010.47 1010.51 1010.60 1010.37 1010.21 1010.00 1009.79 1009.16 1009.03 1009.09 1009.55 1009.84 1010.08 1010.35 1010.74 1011.03 1011.35 1011.75 1011.99
1009.32 1009.87 1010.45 1010.85 1011.11 1011.25 1011.39 1011.51 1011.63 1011.66 1011.97 1012.17 1012.27 1012.41 1012.25 1011.84 1012.20 1012.06 1011.79 1011.47 1011.31 1011.39 1011.39 1011.08 1010.72 1010.54 1010.35 1010.38 1010.18 1010.13 1009.69 1008.70 1008.06 1007.37 1007.80 1008.42 1009.06 1009.16 1009.48 1009.81 1010.06 1010.35 1010.76
1008.84 1009.06 1009.75 1010.14 1010.36 1010.60 1010.80 1010.98 1011.06 1011.35 1011.49 1011.68 1011.87 1012.32 1012.07 1012.09 1012.20 1012.16 1012.39 1012.19 1011.63 1011.54 1011.49 1011.02 1010.47 1009.82 1009.68 1009.91 1009.84 1009.64 1009.44 1008.93 1008.15 1007.38 1007.74 1007.48 1007.51 1007.93 1008.13 1008.52 1009.12 1009.37 1009.66
1007.92 1008.26 1008.46 1009.09 1009.64 1010.09 1010.29 1010.42 1010.60 1010.83 1010.95 1010.95 1011.29 1011.59 1011.62 1011.95 1012.20 1012.41 1012.40 1012.24 1012.22 1012.03 1011.42 1010.92 1010.04 1009.48 1009.20 1008.90 1009.02 1008.96 1008.71 1008.47 1008.13 1007.58 1006.95 1006.86 1006.73 1006.65 1006.95 1007.00 1007.51 1008.49 1008.78
1007.05 1007.80 1008.10 1008.51 1009.17 1009.54 1009.62 1009.78 1010.01 1010.10 1010.21 1010.76 1011.02 1011.26 1011.62 1011.89 1012.24 1012.51 1012.52 1012.06 1011.99 1011.91 1011.45 1010.92 1010.31 1009.79 1009.38 1009.48 1009.56 1009.23 1008.91 1008.31 1008.25 1007.55 1006.79 1006.22 1006.41 1007.42 1006.16 1007.61 1006.46 1006.89 1007.76
1005.97 1006.84 1007.59 1008.15 1008.52 1008.68 1008.67 1008.43 1008.97 1008.77 1009.34 1010.35 1010.48 1010.91 1011.18 1011.63 1012.04 1012.22 1012.41 1012.66 1012.67 1012.56 1012.09 1011.36 1010.77 1010.17 1010.09 1009.90 1009.70 1009.59 1009.62 1009.12 1008.39 1007.93 1007.53 1006.71 1006.19 1005.54 1005.94 1005.57 1005.84 1006.02 1006.14
1005.47 1006.29 1006.75 1006.93 1006.87 1006.53 1006.14 1006.57 1007.84 1008.84 1008.72 1009.29 1009.96 1010.42 1010.65 1010.08 1011.37 1011.81 1012.00 1012.01 1012.03 1011.90 1011.79 1011.41 1011.02 1010.57 1010.30 1009.93 1009.90 1009.75 1009.68 1009.58 1009.20 1008.71 1008.20 1006.90 1006.16 1005.02 1004.31 1003.91 1004.05 1004.91 1006.06
1004.75 1005.19 1005.59 1005.63 1006.25 1007.19 1007.82 1007.76 1007.10 1008.05 1008.29 1008.80 1009.40 1009.81 1010.49 1010.68 1011.43 1011.62 1011.35 1011.20 1010.98 1010.82 1010.83 1010.77 1010.46 1009.91 1009.85 1010.00 1010.24 1010.20 1009.85 1009.42 1008.89 1008.00 1007.29 1006.06 1005.48 1004.58 1003.92 1003.42 1003.61 1004.33 1004.73
1004.07 1004.28 1004.42 1005.15 1006.39 1007.84 1008.71 1008.44 1007.94 1008.33 1008.27 1008.93 1009.44 1010.04 1010.29 1010.76 1011.88 1012.01 1011.96 1011.58 1011.19 1010.71 1010.10 1010.03 1009.95 1009.83 1009.75 1009.71 1009.85 1009.73 1009.08 1008.17 1007.33 1006.94 1006.79 1005.90 1005.12 1004.48 1003.99 1003.33 1002.91 1003.82 1004.22
1003.95 1004.55 1005.12 1005.87 1006.75 1008.33 1009.38 1009.27 1009.06 1008.50 1008.70 1009.29 1009.64 1010.07 1010.81 1010.94 1012.06 1012.18 1012.23 1012.00 1011.54 1011.04 1010.67 1010.48 1010.10 1009.78 1009.35 1009.04 1008.60 1008.62 1008.22 1007.70 1007.06 1006.72 1006.28 1005.79 1005.21 1004.68 1003.83 1003.35 1002.93 1002.70 1002.84
Wind_Speed
1 3 1 1 1 4 3 3 5 3 3 8 7 3 7 7 7 3 3 17 18 19 20 19 18 21 19 18 19 18 16 15 13 14 14 13 12 13 11 11 10 11 12
4 3 3 4 3 5 3 3 2 5 2 6 5 6 8 8 7 6 4 6 18 20 21 20 19 21 21 20 22 19 16 14 14 14 13 12 13 11 14 13 12 11 11
5 3 1 1 1 3 3 2 3 3 2 8 6 5 5 6 6 7 6 7 8 19 21 22 21 21 21 22 21 19 16 13 7 7 9 10 12 14 15 13 14 12 11
3 5 2 3 2 3 3 5 4 4 4 6 0 4 5 7 1 5 6 3 6 7 16 19 20 21 24 24 23 19 16 13 10 11 9 10 13 14 16 15 15 13 14
7 6 5 3 2 2 4 2 5 1 4 4 4 6 7 7 6 6 6 9 6 6 5 16 21 22 24 24 23 21 20 17 13 14 15 13 12 13 16 16 15 15 14
9 8 5 3 3 3 2 4 3 6 5 4 9 6 7 2 3 2 3 5 5 5 6 8 9 10 21 25 22 21 19 23 20 17 17 14 14 12 15 16 16 16 15
6 6 6 4 4 6 2 4 2 5 6 5 8 4 6 5 10 5 7 11 3 4 11 8 7 5 6 23 23 20 18 24 25 22 21 18 17 16 13 14 16 17 17
7 7 5 7 6 2 5 3 3 6 1 3 6 9 2 3 6 8 7 6 8 8 7 9 0 4 5 3 11 20 18 20 24 26 23 23 19 18 16 13 15 17 18
8 8 6 6 3 3 4 5 5 3 5 3 3 5 6 7 6 5 7 5 4 5 5 8 3 3 2 4 5 10 19 20 24 27 29 26 24 22 17 14 16 17 18
10 9 9 8 7 6 3 3 7 4 2 7 3 1 4 5 5 5 4 1 4 7 7 6 7 5 1 3 6 5 13 20 23 24 25 27 27 26 22 16 15 16 18
9 9 9 9 8 7 6 4 4 5 5 5 6 4 2 3 4 4 7 7 6 5 4 2 5 3 4 4 4 6 10 20 21 21 22 26 26 25 25 22 17 16 19
10 10 9 8 8 8 6 5 6 7 6 6 6 4 3 4 4 5 6 7 4 3 5 2 1 3 1 1 4 1 11 16 18 19 20 22 25 24 25 25 25 22 21
9 12 9 8 8 8 7 5 5 7 5 4 5 7 0 4 3 5 6 6 8 5 1 4 2 2 2 3 4 10 12 12 14 17 19 21 23 23 25 27 29 29 25
8 7 10 10 9 6 7 6 7 9 7 6 7 5 5 5 8 5 5 6 7 7 5 2 3 4 4 1 2 15 7 16 16 16 17 20 22 24 25 25 26 29 30
8 6 8 8 7 7 7 6 7 7 3 5 8 7 7 6 1 5 3 4 5 7 7 6 6 3 3 5 6 9 9 15 21 20 20 20 21 24 26 26 26 26 26
9 5 8 7 8 8 8 7 7 7 5 7 5 7 6 8 5 5 5 4 4 5 7 7 7 9 12 9 5 7 10 8 16 19 21 21 22 23 25 26 27 28 27
9 9 7 8 8 9 9 7 7 7 7 7 7 6 5 4 7 7 6 6 5 6 8 7 8 8 10 9 9 10 12 9 10 23 21 22 22 23 24 25 26 25 25
12 8 8 9 9 9 9 8 9 9 7 8 8 6 8 4 4 7 7 4 6 5 6 8 7 7 7 8 7 9 10 12 13 10 23 21 20 22 21 21 21 21 21
11 13 12 11 11 11 10 9 9 7 9 8 6 5 7 3 5 6 6 7 8 6 6 8 8 8 6 7 7 8 8 11 11 10 12 22 22 21 20 19 17 18 18
13 14 13 13 12 10 10 10 8 8 9 7 5 8 5 5 5 5 6 5 7 6 9 8 8 8 7 6 5 8 8 8 9 12 12 11 18 22 22 21 21 19 18
14 13 11 10 10 10 9 10 10 7 8 6 7 6 8 5 5 2 5 5 5 7 8 9 9 9 9 10 10 9 10 8 10 10 10 10 6 5 11 16 17 22 20
14 13 11 10 9 8 3 12 5 9 7 6 7 8 7 8 7 9 9 9 7 7 8 8 9 9 8 9 10 9 11 11 11 9 12 12 13 10 9 8 20 19 26
14 12 13 13 15 14 19 16 12 8 8 8 8 7 7 4 11 10 14 12 12 15 15 9 9 9 9 8 8 9 10 10 11 11 12 13 11 12 10 12 14 21 20
15 15 15 16 12 6 5 8 15 10 8 6 8 9 8 7 8 6 7 9 11 12 11 11 11 10 9 8 6 8 11 11 12 12 13 12 10 12 10 10 11 15 21
16 17 16 14 12 9 3 4 8 7 6 6 5 6 6 3 6 8 6 10 12 13 12 9 9 9 8 8 11 11 12 12 12 12 10 13 10 11 11 12 9 15 16
13 13 12 10 12 11 7 7 2 4 4 6 7 9 13 5 7 8 5 8 11 13 12 13 14 15 12 14 19 15 11 13 12 11 11 11 10 11 12 11 11 6 7
Wind_Direction
67 164 126 233 190 303 300 127 257 120 95 279 288 298 261 265 256 267 196 185 199 206 209 211 220 220 212 213 213 215 210 229 227 229 216 212 216 204 212 209 212 201 190
156 266 182 214 212 210 212 276 8 321 106 266 217 277 255 195 212 216 249 186 204 204 213 218 217 227 224 211 220 219 218 209 213 223 227 219 216 215 211 210 212 207 194
188 309 317 263 251 239 271 332 284 251 244 266 245 263 266 252 221 229 246 205 199 210 211 215 216 222 215 233 221 219 216 214 214 249 240 237 234 218 219 212 210 204 208
252 232 287 302 231 206 205 250 188 203 277 272 292 216 273 256 243 218 243 280 226 193 211 219 216 223 217 223 232 218 208 217 201 241 256 255 247 234 220 218 212 210 201
216 255 208 288 302 61 301 255 267 296 235 275 279 222 209 230 193 198 188 223 202 211 217 203 212 219 224 225 229 226 202 195 215 230 244 247 261 244 232 218 217 214 207
205 220 258 147 273 280 137 359 3 317 332 282 281 284 313 346 183 160 1 255 119 171 220 213 194 223 226 225 232 226 210 188 203 227 235 248 251 264 246 231 219 217 212
233 203 252 128 212 196 248 258 267 211 264 247 299 7 157 143 300 253 148 253 186 149 203 222 205 202 213 217 226 220 209 198 193 210 234 236 243 247 251 242 228 219 219
226 243 249 197 221 216 182 241 255 287 131 33 320 320 33 215 25 341 345 333 51 314 342 1 258 214 242 201 224 212 208 196 203 198 215 235 241 246 252 241 231 221 218
225 218 209 252 282 269 165 206 210 246 335 351 305 323 339 358 346 320 326 297 27 322 342 345 77 351 260 202 205 206 201 189 202 211 206 214 231 241 247 249 237 225 219
213 209 211 221 224 269 312 219 212 284 290 286 144 290 342 347 333 352 13 5 275 266 48 337 3 62 38 212 194 194 184 187 197 211 210 210 218 232 241 250 239 233 224
210 225 202 210 224 235 220 268 281 260 285 263 277 331 338 273 198 303 318 7 338 328 29 8 340 69 154 221 223 195 188 186 196 207 212 212 217 226 233 241 245 237 234
197 214 218 212 228 239 237 251 240 248 267 292 283 310 304 318 310 336 338 318 316 355 298 245 50 35 68 204 234 194 180 193 203 205 211 212 214 220 225 233 244 242 233
213 172 197 207 218 220 260 232 243 280 254 263 272 303 208 267 328 276 304 330 322 347 332 101 193 51 156 173 229 193 197 207 209 211 216 216 215 217 220 226 232 243 245
206 195 171 202 212 236 214 228 249 235 152 226 244 278 302 272 262 333 335 325 320 339 336 342 65 171 180 260 116 178 222 202 211 214 217 219 222 222 221 221 227 232 239
239 198 189 198 218 218 227 242 240 260 274 257 268 249 265 298 213 228 317 270 318 315 317 328 316 214 228 195 169 210 210 204 206 212 213 217 223 226 226 226 224 226 232
224 257 190 216 232 231 228 234 252 246 235 260 268 337 313 296 326 250 240 253 235 274 289 304 311 348 6 345 283 274 274 281 202 214 214 211 214 221 227 231 231 231 223
221 202 225 214 225 230 235 233 267 290 277 264 262 283 281 290 295 316 315 297 286 254 287 300 324 313 334 317 317 307 299 273 224 211 212 216 213 215 224 229 232 234 226
215 208 202 217 225 230 235 242 251 291 249 267 275 264 260 252 290 265 280 344 322 306 294 296 286 284 272 275 284 309 298 297 295 232 210 204 215 215 217 223 227 226 208
210 210 198 213 218 221 226 229 229 234 265 264 267 265 252 251 269 310 326 318 314 332 299 286 311 290 330 298 292 273 277 293 285 284 201 216 207 213 212 210 215 207 201
195 211 211 198 214 224 231 235 245 244 239 238 230 237 228 234 247 265 274 282 263 273 281 276 302 302 301 295 301 315 312 312 293 303 310 207 221 214 210 202 201 209 206
185 205 213 214 199 220 229 226 235 244 239 243 226 207 219 223 82 320 283 309 302 266 307 303 310 313 315 346 313 314 299 322 315 301 304 308 298 207 235 232 217 209 215
184 192 204 201 201 223 137 159 207 241 195 215 221 216 207 171 201 223 237 262 288 285 284 298 304 323 304 325 311 327 321 309 306 312 324 311 313 299 225 181 226 225 207
180 181 195 188 195 197 191 166 151 222 246 202 207 239 235 244 190 210 224 226 236 237 234 260 272 286 301 304 326 306 300 314 297 308 296 285 281 281 288 286 226 204 223
182 187 189 192 194 197 126 159 146 195 251 205 211 208 237 278 44 331 297 283 286 291 244 238 253 285 296 321 309 294 285 275 266 259 263 273 292 292 290 269 185 182 233
187 189 187 182 177 127 142 138 147 173 202 216 226 230 244 231 66 30 311 296 294 291 294 280 274 296 280 250 254 278 276 284 294 291 287 286 291 289 295 296 294 167 180
187 189 174 165 119 122 74 85 119 190 210 221 212 211 56 101 81 53 337 307 298 293 325 318 308 297 273 268 241 243 252 260 278 297 289 296 295 304 294 297 300 273 201